Orbital Elements at Epoch 2459200.5 (2020-Dec-17.0) TDB
Reference: JPL 29 (heliocentric ecliptic J2000)
Element | Value | Uncertainty (1-sigma) | Units |
e | .1643253847144076 | 3.1285e-08 | |
a | 2.381070109635042 | 7.4478e-09 | au |
q | 1.989799847837287 | 7.7225e-08 | au |
i | 1.978926030884065 | 4.1894e-06 | deg |
node | 185.8138027846672 | 8.4013e-05 | deg |
peri | 275.0757679332664 | 8.512e-05 | deg |
M | 303.3285887986551 | 1.3411e-05 | deg |
tp | 2459411.760463494129 (2021-Jul-16.26046349) | 5.036e-05 | TDB |
period | 1342.012934664339 3.67 | 6.2966e-06 1.724e-08 | d yr |
n | .2682537483068613 | 1.2586e-09 | deg/d |
Q | 2.772340371432797 | 8.6716e-09 | au |
|
| | Orbit Determination Parameters
Additional Information
|